Location: Unspecified
(33.6682°S, 0.0000°E)
Time: 20:20:45
(UTC+00:00)

S-56A Canister/Altair - Pass Details

Date: 03 July 2019
Orbit: 632 x 2500 km, 38.9° (Epoch: 15 July)

Event Time Altitude Azimuth Distance (km) Brightness Sun altitude
Exits shadow 03:06:41 34° 111° (ESE) 2,243 10.0 -48.8°
Drops below altitude 10° 03:12:40 10° 97° (E) 4,101 11.7 -47.5°
Sets 03:16:45 0° 93° (E) 5,384 12.6 -46.7°
